[[{"header":{"parameterUnit":"m.s-1","parameterCategory":1,"la1":30.2991,"la2":30.254,"lo1":-89.0895,"lo2":-89.0444,"dy":0.0017,"dx":0.0017,"nx":28,"ny":28,"refTime":"2025-09-18T21:00:00:Z","depth":0,"parameterNumber":2,"parameterNumberName":"U-component_of_WINDS"},"data":[0,0,0,0,0,0,0,0,0,0,0,0,0,0,0,0,0,0,0,0,0,0,0,0,0,0,0,0,0,0,0,0,0,0,0,0,0,0,0,0,0,0,0,0,0,0,0,0,0,0,0,0,0,0,0,0,0,0,0.4671,0.4671,0,0.469,0.469,0.469,0.4708,0.4708,0.4709,0.4709,0.4727,0.4727,0.4727,0,0,0,0,0,0,0,0,0,0,0,0,0,0.4653,0.4653,0.4671,0.4671,0.4672,0.4689,0.469,0.469,0.4708,0.4708,0.4709,0.4709,0.4727,0.4727,0.4728,0,0,0,0,0,0,0,0,0,0,0,0,0,0.4665,0.4653,0.4671,0.4683,0.4684,0.4689,0.469,0.469,0.4708,0.4708,0.4709,0.4709,0.4727,0.4727,0.4728,0.4723,0,0,0.4729,0.4729,0,0,0,0,0,0,0,0,0.4664,0.4665,0.4681,0.4682,0.4684,0.4697,0.469,0.4701,0.4708,0.4699,0.4709,0.4709,0.4717,0.4718,0.472,0.4723,0.4724,0.4729,0.4729,0.4729,0.4729,0,0,0,0,0,0,0,0.4663,0.4665,0.4678,0.4681,0.4683,0.4687,0.469,0.4692,0.4705,0.47,0.4701,0.4703,0.4717,0.472,0.4721,0.4724,0.4729,0.4729,0.4729,0.4729,0.4725,0.4725,0,0,0,0,0,0,0.466,0.4664,0.4678,0.4679,0.4674,0.4687,0.469,0.4692,0.4706,0.4708,0.4703,0.4704,0.4719,0.4721,0.4722,0.4717,0.4729,0.4729,0.473,0.4725,0.4725,0.4725,0,0,0,0,0,0,0.466,0.4662,0.4677,0.4672,0.4674,0.4687,0.469,0.4692,0.4695,0.4708,0.471,0.4703,0.472,0.4721,0.4722,0.4718,0.473,0.473,0.4726,0.4725,0.4725,0.4707,0,0,0,0,0,0,0.4659,0.4661,0.4659,0.4672,0.4674,0.4677,0.469,0.4693,0.4696,0.4697,0.4709,0.4711,0.472,0.4722,0.4723,0.4719,0.473,0.4726,0.4725,0.4725,0.4708,0.4706,0.4704,0,0,0,0,0,0.4659,0.4653,0.4659,0.4661,0.4672,0.4677,0.4679,0.4689,0.4695,0.4694,0.4702,0.471,0.4718,0.4722,0.4723,0.4719,0.4726,0.4726,0.4725,0.4709,0.4706,0.4704,0,0,0,0,0,0,0.4639,0.4655,0.4662,0.466,0.4667,0.468,0.4678,0.4686,0.4691,0.4693,0.4706,0.4708,0.4708,0.4714,0.4717,0.4715,0.4724,0.4723,0.4711,0.4709,0.4707,0.4705,0.4731,0,0,0,0,0,0.4635,0.4638,0.4651,0.4649,0.4652,0.4664,0.4667,0.4675,0.4682,0.4685,0.4694,0.4701,0.4705,0.4707,0.4712,0.471,0.4712,0.4707,0.4706,0.4704,0.4703,0.4702,0.47,0.4722,0.4722,0.4722,0,0,0.4626,0.4635,0.4636,0.4645,0.4652,0.4654,0.4667,0.4669,0.4671,0.4686,0.4687,0.4694,0.4703,0.4702,0.4702,0.4707,0.4698,0.4703,0.4701,0.4701,0.4701,0.4699,0.4698,0.4721,0.4722,0.4722,0,0,0.4611,0.4618,0.4617,0.4623,0.4633,0.4641,0.4641,0.4653,0.4658,0.466,0.4672,0.4674,0.4681,0.4687,0.4691,0.468,0.4688,0.4681,0.467,0.467,0.4668,0.4666,0.4662,0.4661,0.468,0.468,0.468,0,0.4598,0.4602,0.4615,0.4616,0.462,0.4635,0.4634,0.4639,0.465,0.4652,0.4658,0.4667,0.4674,0.4675,0.4673,0.4675,0.4676,0.4679,0.4667,0.4666,0.4665,0.4661,0.4659,0.4679,0.4679,0.4679,0.4679,0,0.4586,0.4589,0.4587,0.4597,0.4601,0.4601,0.4614,0.4617,0.4625,0.4633,0.4635,0.4644,0.4651,0.4652,0.466,0.4655,0.4657,0.4665,0.4673,0.4662,0.4658,0.4657,0.4678,0.4678,0.4678,0.4679,0,0,0.4558,0.4576,0.4575,0.458,0.4593,0.4595,0.4597,0.4604,0.4605,0.4613,0.4614,0.462,0.4628,0.4632,0.4641,0.464,0.4631,0.4648,0.4648,0.4644,0.4626,0.462,0.4618,0.4637,0.4636,0.4636,0.4625,0,0.4544,0.4547,0.4559,0.4558,0.4561,0.4576,0.4577,0.4585,0.4593,0.4597,0.4606,0.461,0.4619,0.4622,0.4623,0.4632,0.4627,0.4633,0.4638,0.4638,0.4634,0.4616,0.4609,0.4598,0.4624,0.4623,0.4623,0,0.4528,0.4535,0.4535,0.4548,0.4549,0.455,0.4558,0.4562,0.4571,0.4577,0.4583,0.4593,0.4596,0.4604,0.4608,0.4612,0.4615,0.462,0.462,0.462,0.4629,0.4615,0.4594,0.4592,0.4621,0.4621,0.4622,0,0.4507,0.4516,0.4517,0.4521,0.4537,0.4537,0.4544,0.4554,0.4557,0.4565,0.4567,0.4575,0.4578,0.4584,0.4596,0.4601,0.4598,0.4608,0.4603,0.4602,0.4601,0.46,0.458,0.4604,0.4604,0.4604,0.4604,0,0.449,0.4489,0.4508,0.4509,0.4508,0.4523,0.4522,0.453,0.4539,0.4542,0.4555,0.4557,0.4573,0.4577,0.4587,0.4589,0.459,0.4595,0.4597,0.4593,0.4593,0.4595,0.4596,0.4603,0.4603,0.4604,0.4604,0,0.4465,0.4478,0.448,0.4495,0.4499,0.4498,0.4511,0.4513,0.4522,0.4525,0.4527,0.4542,0.4547,0.456,0.4569,0.4575,0.4575,0.4579,0.4571,0.4572,0.4567,0.4567,0.4546,0.4544,0.457,0.4569,0.4569,0,0.4453,0.4453,0.4468,0.4471,0.4477,0.4482,0.4486,0.45,0.4504,0.4516,0.4516,0.4523,0.4529,0.4537,0.4549,0.4556,0.4561,0.4553,0.4562,0.4558,0.456,0.4559,0.4559,0.4551,0.455,0.455,0.455,0,0.443,0.4437,0.4442,0.445,0.4455,0.4462,0.447,0.4471,0.4488,0.4492,0.4498,0.4503,0.4513,0.4519,0.4528,0.4535,0.4545,0.4547,0.4546,0.4541,0.4537,0.4539,0.4565,0.4547,0.4547,0.4548,0.4548,0.4548,0.4411,0.4412,0.4423,0.4429,0.4436,0.4444,0.4446,0.4456,0.4461,0.447,0.4479,0.4484,0.4495,0.4508,0.4515,0.4519,0.4524,0.4523,0.4523,0.4522,0.452,0.4537,0.4521,0.4521,0.4521,0.4522,0.4522,0,0.4388,0.4396,0.4402,0.4412,0.4417,0.4427,0.4437,0.444,0.4445,0.4454,0.446,0.4467,0.4474,0.4487,0.4495,0.4496,0.4501,0.4498,0.4497,0.4499,0.4515,0.4515,0.4494,0.4494,0.4494,0.4494,0.4494,0.4494,0.4377,0.4378,0.4387,0.4392,0.4401,0.4406,0.4411,0.4418,0.4425,0.4433,0.4439,0.4447,0.4458,0.4467,0.4474,0.4478,0.448,0.4475,0.448,0.4495,0.4498,0.45,0.45,0.4476,0.4476,0.4463,0.4463,0.4463]},{"header":{"parameterUnit":"m.s-1","parameterCategory":1,"la1":30.2991,"la2":30.254,"lo1":-89.0895,"lo2":-89.0444,"dy":0.0017,"dx":0.0017,"nx":28,"ny":28,"refTime":"2025-09-18T21:00:00:Z","depth":0,"parameterNumber":3,"parameterNumberName":"V-component_of_WINDS"},"data":[0,0,0,0,0,0,0,0,0,0,0,0,0,0,0,0,0,0,0,0,0,0,0,0,0,0,0,0,0,0,0,0,0,0,0,0,0,0,0,0,0,0,0,0,0,0,0,0,0,0,0,0,0,0,0,0,0,0,-1.9157,-1.9157,0,-1.9207,-1.9208,-1.9208,-1.9213,-1.9213,-1.9212,-1.9212,-1.9262,-1.9263,-1.9265,0,0,0,0,0,0,0,0,0,0,0,0,0,-1.9065,-1.9066,-1.9157,-1.9157,-1.9158,-1.9207,-1.9208,-1.9208,-1.9213,-1.9213,-1.9212,-1.9212,-1.9261,-1.9263,-1.9265,0,0,0,0,0,0,0,0,0,0,0,0,0,-1.9109,-1.9067,-1.9157,-1.9166,-1.9168,-1.9207,-1.9208,-1.9208,-1.9213,-1.9213,-1.9212,-1.9211,-1.926,-1.9263,-1.9266,-1.9298,0,0,-1.9274,-1.9275,0,0,0,0,0,0,0,0,-1.9106,-1.9112,-1.9164,-1.9166,-1.9167,-1.9203,-1.9193,-1.9238,-1.9214,-1.9196,-1.9212,-1.9211,-1.9243,-1.9247,-1.9258,-1.93,-1.9302,-1.9274,-1.9276,-1.9277,-1.9278,0,0,0,0,0,0,0,-1.9103,-1.911,-1.9177,-1.9165,-1.9167,-1.9168,-1.9174,-1.9202,-1.9223,-1.9198,-1.9198,-1.9204,-1.9243,-1.9255,-1.9259,-1.9303,-1.9274,-1.9277,-1.9278,-1.9279,-1.9376,-1.9377,0,0,0,0,0,0,-1.9098,-1.9107,-1.9175,-1.9178,-1.9134,-1.917,-1.9177,-1.9192,-1.9223,-1.9227,-1.9205,-1.9204,-1.9251,-1.9256,-1.9261,-1.9302,-1.9277,-1.928,-1.9281,-1.9375,-1.9376,-1.9377,0,0,0,0,0,0,-1.9096,-1.9104,-1.9173,-1.9143,-1.9152,-1.9173,-1.9191,-1.9194,-1.9206,-1.9228,-1.9232,-1.9213,-1.9251,-1.9257,-1.9289,-1.9304,-1.9281,-1.9283,-1.9374,-1.9376,-1.9377,-1.9384,0,0,0,0,0,0,-1.9094,-1.9104,-1.9116,-1.9143,-1.9153,-1.9201,-1.9192,-1.9195,-1.9211,-1.921,-1.9237,-1.9241,-1.925,-1.9285,-1.9292,-1.9307,-1.9285,-1.9373,-1.9375,-1.9377,-1.9383,-1.9385,-1.9388,0,0,0,0,0,-1.909,-1.9115,-1.9117,-1.9125,-1.9169,-1.9201,-1.9207,-1.9219,-1.9212,-1.9225,-1.9239,-1.924,-1.9301,-1.9288,-1.9296,-1.9312,-1.9372,-1.9374,-1.9376,-1.9381,-1.9385,-1.9388,0,0,0,0,0,0,-1.9088,-1.9119,-1.9121,-1.9155,-1.9176,-1.9202,-1.9219,-1.9222,-1.9244,-1.9243,-1.9255,-1.9261,-1.9294,-1.9306,-1.9291,-1.9346,-1.9336,-1.934,-1.9337,-1.9341,-1.9343,-1.934,-1.9288,0,0,0,0,0,-1.9092,-1.9116,-1.9141,-1.9169,-1.9179,-1.9197,-1.9211,-1.9219,-1.924,-1.9249,-1.9266,-1.9286,-1.931,-1.9326,-1.9349,-1.9384,-1.9391,-1.9399,-1.9402,-1.9404,-1.9407,-1.9429,-1.9433,-1.9384,-1.9384,-1.9384,0,0,-1.9099,-1.9119,-1.9133,-1.9169,-1.9186,-1.921,-1.9204,-1.923,-1.9249,-1.9252,-1.9285,-1.9298,-1.9322,-1.9356,-1.9372,-1.9367,-1.9422,-1.9407,-1.9408,-1.9411,-1.9431,-1.9436,-1.944,-1.9386,-1.9386,-1.9385,0,0,-1.9126,-1.9143,-1.9169,-1.9186,-1.9212,-1.9224,-1.9231,-1.9257,-1.9266,-1.9299,-1.9303,-1.9325,-1.9365,-1.9383,-1.9397,-1.9432,-1.9434,-1.9439,-1.9454,-1.9474,-1.9478,-1.9482,-1.9496,-1.95,-1.9442,-1.9442,-1.9442,0,-1.9132,-1.917,-1.9182,-1.9208,-1.9224,-1.923,-1.9257,-1.9273,-1.9305,-1.9316,-1.931,-1.9363,-1.9379,-1.9419,-1.9427,-1.9438,-1.9446,-1.9437,-1.9477,-1.948,-1.9484,-1.9497,-1.9502,-1.9443,-1.9443,-1.9443,-1.9443,0,-1.9177,-1.9203,-1.9221,-1.9253,-1.9271,-1.9297,-1.9313,-1.933,-1.9336,-1.9349,-1.9382,-1.9402,-1.9431,-1.944,-1.9445,-1.9481,-1.9477,-1.9474,-1.9464,-1.9489,-1.9502,-1.9507,-1.9444,-1.9443,-1.9443,-1.9443,0,0,-1.9204,-1.9243,-1.925,-1.9265,-1.9295,-1.9315,-1.9342,-1.937,-1.9385,-1.9407,-1.9431,-1.9466,-1.9464,-1.948,-1.9487,-1.9505,-1.9533,-1.95,-1.95,-1.9507,-1.9575,-1.9579,-1.9585,-1.9534,-1.9535,-1.9536,-1.9574,0,-1.9235,-1.9284,-1.9296,-1.9338,-1.9363,-1.9369,-1.9393,-1.9414,-1.9427,-1.9449,-1.9463,-1.9489,-1.9483,-1.9493,-1.9511,-1.9526,-1.9548,-1.9523,-1.9557,-1.9558,-1.9553,-1.9591,-1.9594,-1.9629,-1.9579,-1.958,-1.958,0,-1.9278,-1.9303,-1.9347,-1.9375,-1.9386,-1.9407,-1.9436,-1.9457,-1.9481,-1.9489,-1.9508,-1.9514,-1.9543,-1.9531,-1.9571,-1.9555,-1.9569,-1.9579,-1.9581,-1.9585,-1.9572,-1.9598,-1.964,-1.9646,-1.9588,-1.9588,-1.9587,0,-1.9295,-1.9339,-1.9372,-1.9385,-1.9418,-1.9433,-1.9447,-1.9471,-1.9488,-1.9512,-1.9523,-1.955,-1.9565,-1.9586,-1.9599,-1.9589,-1.9639,-1.9628,-1.9647,-1.9647,-1.9658,-1.9658,-1.9705,-1.9665,-1.9665,-1.9665,-1.9665,0,-1.933,-1.9357,-1.9381,-1.9401,-1.9432,-1.9446,-1.9477,-1.9491,-1.9512,-1.9536,-1.9542,-1.9564,-1.9579,-1.9603,-1.9614,-1.9647,-1.9653,-1.9661,-1.9663,-1.9661,-1.966,-1.9672,-1.967,-1.9666,-1.9666,-1.9666,-1.9666,0,-1.9355,-1.9371,-1.9408,-1.9437,-1.9445,-1.9467,-1.9491,-1.9512,-1.9525,-1.9555,-1.9562,-1.9583,-1.9612,-1.9627,-1.9663,-1.967,-1.9707,-1.9708,-1.97,-1.9701,-1.972,-1.9719,-1.9778,-1.9787,-1.974,-1.974,-1.974,0,-1.9376,-1.9398,-1.943,-1.9446,-1.9462,-1.9488,-1.9506,-1.952,-1.9538,-1.9568,-1.9585,-1.9615,-1.9639,-1.9685,-1.9703,-1.9731,-1.9733,-1.9752,-1.9737,-1.9735,-1.9736,-1.9735,-1.9738,-1.9755,-1.9755,-1.9756,-1.9756,0,-1.9414,-1.9421,-1.9447,-1.9476,-1.9498,-1.9521,-1.9544,-1.9557,-1.9575,-1.9595,-1.9626,-1.9645,-1.9682,-1.9712,-1.9741,-1.9756,-1.976,-1.976,-1.9767,-1.9765,-1.976,-1.9765,-1.9708,-1.9759,-1.9759,-1.9758,-1.9758,-1.9758,-1.9439,-1.9459,-1.9485,-1.9514,-1.9533,-1.9555,-1.9576,-1.9592,-1.9618,-1.9651,-1.9657,-1.969,-1.9714,-1.9754,-1.977,-1.9796,-1.9792,-1.98,-1.9803,-1.9805,-1.9807,-1.9755,-1.9801,-1.9801,-1.9801,-1.9801,-1.98,0,-1.9478,-1.9495,-1.9522,-1.9555,-1.9578,-1.9579,-1.9605,-1.9624,-1.9653,-1.9676,-1.9701,-1.9736,-1.9765,-1.9786,-1.9816,-1.9832,-1.9835,-1.984,-1.984,-1.9843,-1.9808,-1.98,-1.9838,-1.9838,-1.9838,-1.9838,-1.9838,-1.9838,-1.9501,-1.9536,-1.9547,-1.9592,-1.9609,-1.9642,-1.9656,-1.9677,-1.9696,-1.9735,-1.976,-1.9774,-1.9796,-1.9828,-1.9855,-1.986,-1.9871,-1.9877,-1.9882,-1.9849,-1.9845,-1.9842,-1.9835,-1.9879,-1.9879,-1.9916,-1.9916,-1.9916]}]]